Home   Weather   Krasnodar   Past weeks

Flag for Russia Past Weather in Krasnodar, Russia — Yesterday and Last 2 Weeks

Now
30 °F

Sunny.


Feels Like: 23 °F
Forecast: 14 / 39 °F
Wind: 8 mph from Southwest

Location: Krasnodar Airport

Current Time: Dec 6, 2016 at 11:24:40 am

Latest Report: Dec 6, 2016 at 10:30 am


Visibility: 10 mi

Pressure: 30.36 "Hg

Humidity: 80%

Dew Point: 25 °F

Location of KrasnodarLocation

Past Weather in Krasnodar — Graph

°F

Krasnodar Temperature Yesterday

Maximum temperature yesterday: 32 °F (at 3:00 am)
Minimum temperature yesterday: 18 °F (at 7:00 pm)
Average temperature yesterday: 27 °F

High & Low Weather Summary for the Past Weeks

 TemperatureHumidityPressure
High61 °F (Nov 28, 1:30 pm)100% (Nov 25, 4:00 am)30.54 "Hg (Nov 25, 4:00 am)
Low18 °F (Dec 5, 7:00 pm)39% (Nov 23, 1:30 pm)29.53 "Hg (Dec 3, 6:30 am)
Average35 °F82%30.15 "Hg
* Reported Nov 21 10:00 am — Dec 6 10:00 am, Krasnodar, Weather by CustomWeather, © 2016

Note: Actual official high and low records may vary slightly from our data, if they occured in-between our weather recording intervals... More about our weather records

Advertising

Krasnodar Weather History for the Previous 24 Hours

Scroll right to see more
 ConditionsComfort  
Time TempWeatherWind HumidityBarometerVisibility
10:00 am
Tue, Dec 6
30 °FSunny.10 mph80%30.36 "Hg10 mi
9:00 am23 °FSunny.3 mph80%30.39 "Hg10 mi
8:30 am19 °FSunny.6 mph86%30.39 "Hg10 mi
8:00 am19 °FSunny.6 mph86%30.39 "Hg10 mi
7:30 am19 °FClear.6 mph86%30.39 "Hg10 mi
7:00 am19 °FClear.8 mph86%30.42 "Hg10 mi
6:30 am21 °FClear.10 mph86%30.42 "Hg10 mi
6:00 am21 °FClear.10 mph86%30.42 "Hg10 mi
5:30 am19 °FClear.8 mph86%30.45 "Hg10 mi
5:00 am21 °FClear.10 mph86%30.45 "Hg10 mi
4:30 am18 °FClear.8 mph86%30.45 "Hg10 mi
4:00 am19 °FClear.10 mph86%30.45 "Hg10 mi
3:30 am18 °FClear.6 mph86%30.48 "Hg10 mi
3:00 am18 °FClear.6 mph86%30.48 "Hg10 mi
2:30 am19 °FPassing clouds.6 mph86%30.48 "HgN/A
2:00 am21 °FPassing clouds.8 mph86%30.48 "HgN/A
1:30 am21 °FPassing clouds.8 mph86%30.51 "HgN/A
1:00 am19 °FPassing clouds.6 mph93%30.51 "HgN/A
12:30 am19 °FPassing clouds.6 mph86%30.51 "HgN/A
12:00 am19 °FPassing clouds.8 mph93%30.51 "HgN/A
11:00 pm
Mon, Dec 5
21 °FPassing clouds.6 mph86%30.51 "HgN/A
10:30 pm23 °FSnow flurries. Passing clouds.6 mph86%30.51 "HgN/A
10:00 pm23 °FSnow flurries. Passing clouds.6 mph86%30.51 "HgN/A
9:30 pm23 °FSnow flurries. Passing clouds.6 mph93%30.51 "Hg6 mi
9:00 pm21 °FSnow flurries. Partly cloudy.8 mph93%30.51 "HgN/A
8:30 pm19 °FSnow flurries. Passing clouds.6 mph100%30.51 "Hg6 mi
8:00 pm18 °FPassing clouds.3 mph100%30.51 "HgN/A
7:30 pm18 °FClear.1 mph93%30.51 "Hg6 mi
7:00 pm18 °FClear.3 mph93%30.51 "Hg5 mi
6:30 pm19 °FClear.3 mph93%30.51 "Hg10 mi
6:00 pm19 °FPassing clouds.3 mph93%30.51 "HgN/A
5:00 pm23 °FPassing clouds.3 mph80%30.48 "HgN/A
4:30 pm25 °FPartly sunny.8 mph80%30.48 "Hg6 mi
4:00 pm27 °FChilly.10 mph86%30.48 "Hg1 mi
3:30 pm27 °FSnow flurries. Broken clouds.6 mph80%30.45 "HgN/A
3:00 pm28 °FPartly sunny.10 mph64%30.45 "HgN/A
2:30 pm28 °FPartly sunny.8 mph64%30.42 "HgN/A
2:00 pm28 °FScattered clouds.8 mph69%30.42 "HgN/A
1:30 pm28 °FScattered clouds.10 mph74%30.42 "HgN/A
1:00 pm28 °FSnow flurries. Broken clouds.10 mph74%30.42 "Hg5 mi
12:30 pm28 °FSnow flurries. Broken clouds.10 mph80%30.42 "Hg5 mi
12:00 pm30 °FScattered clouds.6 mph75%30.42 "HgN/A
11:30 am28 °FScattered clouds.8 mph80%30.42 "HgN/A
11:00 am28 °FPartly sunny.6 mph74%30.42 "HgN/A
Weather by CustomWeather, © 2016

See weather overviewHow to use our weather pages